TimeCST,TemperatureF,Dew PointF,Humidity,Sea Level PressureIn,VisibilityMPH,Wind Direction,Wind SpeedMPH,Gust SpeedMPH,PrecipitationIn,Events,Conditions,WindDirDegrees,DateUTC
12:15 AM,8.6,6.8,92,30.36,0.2,Calm,Calm,-,N/A,Fog,Light Freezing Fog,0,2012-12-30 06:15:00
12:35 AM,6.8,5.0,92,30.37,0.2,Calm,Calm,-,N/A,Fog,Light Freezing Fog,0,2012-12-30 06:35:00
12:55 AM,8.6,5.0,85,30.37,0.2,Calm,Calm,-,N/A,Fog,Light Freezing Fog,0,2012-12-30 06:55:00
1:15 AM,6.8,5.0,92,30.38,0.2,Calm,Calm,-,N/A,Fog,Light Freezing Fog,0,2012-12-30 07:15:00
1:35 AM,6.8,3.2,85,30.38,0.2,Calm,Calm,-,N/A,Fog,Light Freezing Fog,0,2012-12-30 07:35:00
1:55 AM,8.6,5.0,85,30.39,0.2,Calm,Calm,-,N/A,Fog,Light Freezing Fog,0,2012-12-30 07:55:00
2:17 AM,8.6,6.8,92,30.41,0.2,Calm,Calm,-,N/A,Fog,Light Freezing Fog,0,2012-12-30 08:17:00
2:41 AM,6.8,3.2,85,30.42,0.2,Calm,Calm,-,N/A,Fog,Light Freezing Fog,0,2012-12-30 08:41:00
2:57 AM,8.6,6.8,92,30.42,0.2,Calm,Calm,-,N/A,Fog,Light Freezing Fog,0,2012-12-30 08:57:00
3:17 AM,6.8,3.2,85,30.42,0.2,Calm,Calm,-,N/A,Fog,Light Freezing Fog,0,2012-12-30 09:17:00
3:38 AM,6.8,5.0,92,30.43,0.2,Calm,Calm,-,N/A,Fog,Light Freezing Fog,0,2012-12-30 09:38:00
3:58 AM,5.0,3.2,92,30.42,1.0,Calm,Calm,-,N/A,,Overcast,0,2012-12-30 09:58:00
4:18 AM,5.0,1.4,85,30.42,0.2,Calm,Calm,-,N/A,Fog,Light Freezing Fog,0,2012-12-30 10:18:00
4:38 AM,3.2,1.4,92,30.43,0.2,Calm,Calm,-,N/A,Fog,Light Freezing Fog,0,2012-12-30 10:38:00
4:57 AM,3.2,-0.4,85,30.43,0.2,Calm,Calm,-,N/A,Fog,Light Freezing Fog,0,2012-12-30 10:57:00
5:23 AM,3.2,-0.4,85,30.43,0.2,Calm,Calm,-,N/A,Fog,Light Freezing Fog,0,2012-12-30 11:23:00
5:38 AM,3.2,1.4,92,30.44,0.2,Calm,Calm,-,N/A,Fog,Light Freezing Fog,0,2012-12-30 11:38:00
5:58 AM,3.2,-0.4,85,30.45,0.2,Calm,Calm,-,N/A,Fog,Light Freezing Fog,0,2012-12-30 11:58:00
6:18 AM,3.2,-0.4,85,30.45,0.2,Calm,Calm,-,N/A,Fog,Light Freezing Fog,0,2012-12-30 12:18:00
6:38 AM,3.2,-0.4,85,30.46,0.2,Calm,Calm,-,N/A,Fog,Light Freezing Fog,0,2012-12-30 12:38:00
6:59 AM,3.2,1.4,92,30.46,0.2,Calm,Calm,-,N/A,Fog,Light Freezing Fog,0,2012-12-30 12:59:00
7:19 AM,3.2,-0.4,85,30.46,0.2,Calm,Calm,-,N/A,Fog,Light Freezing Fog,0,2012-12-30 13:19:00
7:35 AM,3.2,1.4,92,30.46,2.0,Calm,Calm,-,N/A,,Overcast,0,2012-12-30 13:35:00
7:37 AM,3.2,-0.4,85,30.46,1.5,Calm,Calm,-,N/A,,Overcast,0,2012-12-30 13:37:00
7:55 AM,5.0,1.4,85,30.46,2.0,Calm,Calm,-,N/A,,Overcast,0,2012-12-30 13:55:00
8:15 AM,6.8,3.2,85,30.48,0.8,Calm,Calm,-,N/A,,Overcast,0,2012-12-30 14:15:00
8:35 AM,6.8,3.2,85,30.49,1.8,Calm,Calm,-,N/A,,Scattered Clouds,0,2012-12-30 14:35:00
8:55 AM,10.4,6.8,85,30.49,0.8,Calm,Calm,-,N/A,,Mist,0,2012-12-30 14:55:00
9:15 AM,10.4,8.6,92,30.49,2.5,Calm,Calm,-,N/A,,Clear,0,2012-12-30 15:15:00
9:35 AM,14.0,12.2,93,30.50,3.0,Calm,Calm,-,N/A,,Clear,0,2012-12-30 15:35:00
9:55 AM,17.6,14.0,86,30.51,3.0,Calm,Calm,-,N/A,,Clear,0,2012-12-30 15:55:00
10:15 AM,19.4,17.6,93,30.50,4.0,Calm,Calm,-,N/A,,Clear,0,2012-12-30 16:15:00
10:35 AM,19.4,17.6,93,30.49,5.0,Calm,Calm,-,0.01,,Clear,0,2012-12-30 16:35:00
10:55 AM,21.2,21.2,100,30.48,5.0,Calm,Calm,-,0.03,,Clear,0,2012-12-30 16:55:00
11:15 AM,23.0,23.0,100,30.47,7.0,SSW,3.5,-,0.04,,Clear,200,2012-12-30 17:15:00
11:35 AM,26.6,26.6,100,30.46,10.0,South,4.6,-,0.09,,Clear,190,2012-12-30 17:35:00
11:55 AM,26.6,26.6,100,30.43,10.0,SSW,4.6,-,0.15,,Clear,210,2012-12-30 17:55:00
12:15 PM,28.4,28.4,100,30.42,10.0,SW,3.5,-,0.04,,Clear,220,2012-12-30 18:15:00
12:35 PM,30.2,30.2,100,30.41,10.0,SSW,4.6,-,0.08,,Clear,210,2012-12-30 18:35:00
12:55 PM,30.2,30.2,100,30.42,10.0,SW,6.9,-,0.08,,Clear,220,2012-12-30 18:55:00
1:15 PM,32.0,30.2,93,30.43,10.0,SW,10.4,-,0.03,,Clear,220,2012-12-30 19:15:00
1:35 PM,32.0,28.4,87,30.43,10.0,SW,10.4,-,0.07,,Clear,220,2012-12-30 19:35:00
1:55 PM,32.0,24.8,75,30.43,10.0,SW,10.4,-,0.08,,Clear,220,2012-12-30 19:55:00
2:15 PM,32.0,24.8,75,30.42,10.0,SSW,9.2,-,N/A,,Clear,210,2012-12-30 20:15:00
2:35 PM,32.0,24.8,75,30.42,10.0,SSW,6.9,-,N/A,,Clear,210,2012-12-30 20:35:00
2:55 PM,32.0,24.8,75,30.41,7.0,SSW,3.5,-,N/A,,Clear,210,2012-12-30 20:55:00
3:15 PM,32.0,26.6,80,30.41,7.0,South,4.6,-,N/A,,Clear,190,2012-12-30 21:15:00
3:35 PM,30.2,24.8,80,30.40,7.0,Calm,Calm,-,N/A,,Clear,0,2012-12-30 21:35:00
3:55 PM,30.2,26.6,86,30.41,7.0,SSW,4.6,-,N/A,,Clear,200,2012-12-30 21:55:00
4:15 PM,32.0,26.6,80,30.41,10.0,SSW,3.5,-,N/A,,Clear,200,2012-12-30 22:15:00
4:35 PM,30.2,24.8,80,30.41,7.0,SSW,4.6,-,N/A,,Clear,210,2012-12-30 22:35:00
4:55 PM,28.4,24.8,86,30.40,7.0,Calm,Calm,-,N/A,,Clear,0,2012-12-30 22:55:00
5:15 PM,28.4,26.6,93,30.39,7.0,Calm,Calm,-,N/A,,Clear,0,2012-12-30 23:15:00
5:35 PM,26.6,23.0,86,30.39,7.0,Calm,Calm,-,N/A,,Clear,0,2012-12-30 23:35:00
5:55 PM,26.6,23.0,86,30.39,5.0,Calm,Calm,-,N/A,,Clear,0,2012-12-30 23:55:00
6:15 PM,26.6,23.0,86,30.39,5.0,Calm,Calm,-,N/A,,Clear,0,2012-12-31 00:15:00
6:35 PM,26.6,24.8,93,30.39,5.0,Calm,Calm,-,N/A,,Clear,0,2012-12-31 00:35:00
6:55 PM,26.6,24.8,93,30.37,5.0,ESE,3.5,-,N/A,,Clear,110,2012-12-31 00:55:00
7:15 PM,26.6,24.8,93,30.37,5.0,SSE,3.5,-,N/A,,Clear,150,2012-12-31 01:15:00
7:35 PM,26.6,24.8,93,30.38,5.0,Calm,Calm,-,N/A,,Clear,0,2012-12-31 01:35:00
7:55 PM,24.8,24.8,100,30.38,4.0,Calm,Calm,-,N/A,,Clear,0,2012-12-31 01:55:00
8:15 PM,26.6,26.6,100,30.37,3.0,Calm,Calm,-,N/A,,Clear,0,2012-12-31 02:15:00
8:35 PM,24.8,24.8,100,30.37,2.0,Calm,Calm,-,N/A,,Clear,0,2012-12-31 02:35:00
8:55 PM,21.2,21.2,100,30.36,0.2,Calm,Calm,-,N/A,Fog,Light Freezing Fog,0,2012-12-31 02:55:00
9:15 PM,19.4,19.4,100,30.36,0.2,Calm,Calm,-,N/A,Fog,Light Freezing Fog,0,2012-12-31 03:15:00
9:35 PM,21.2,21.2,100,30.35,0.2,Calm,Calm,-,N/A,Fog,Light Freezing Fog,0,2012-12-31 03:35:00
9:55 PM,21.2,21.2,100,30.34,1.8,SSE,4.6,-,N/A,,Mist,150,2012-12-31 03:55:00
10:15 PM,21.2,21.2,100,30.32,3.0,SE,4.6,-,N/A,,Clear,140,2012-12-31 04:15:00
10:35 PM,21.2,21.2,100,30.31,3.0,Calm,Calm,-,N/A,,Clear,0,2012-12-31 04:35:00
10:55 PM,21.2,21.2,100,30.31,4.0,Calm,Calm,-,N/A,,Clear,0,2012-12-31 04:55:00
11:15 PM,23.0,23.0,100,30.31,4.0,Calm,Calm,-,N/A,,Clear,0,2012-12-31 05:15:00
11:35 PM,23.0,23.0,100,30.31,5.0,South,4.6,-,N/A,,Clear,190,2012-12-31 05:35:00
11:55 PM,24.8,24.8,100,30.31,5.0,SSW,5.8,-,N/A,,Clear,200,2012-12-31 05:55:00